Weather Roundup
Issued by NWS

Home | Current Version | Previous Version | Text Only | Print | Product List | Glossary On
Versions: 1 2 3 4 5 6 7 8 9 10 11 12 13 14 15 16 17 18 19 20 21 22 23 24 25 26 27 28 29 30 31 32 33 34 35 36 37 38 39 40 41 42 43 44 45 46 47 48 49 50
899
NZUS93 KARX 212310
HRRWXR

CURRENT HOURLY OBSERVATIONS ACROSS
MUCH OF THE UPPER MISSISSIPPI VALLEY
NATIONAL WEATHER SERVICE LA CROSSE WI
600 PM CDT THU MAY 21 2015


...SOUTHEAST MINNESOTA...


CITY           SKY/WX    TMP DP  RH WIND       PRES   REMARKS
ROCHESTER      SUNNY     70  33  25 N15       30.02S
ROCHESTER/MAYO FAIR      70  31  23 W17G25    30.01F
WINONA         SUNNY     73  39  29 NW10G21   29.99S
AUSTIN         SUNNY     70  34  26 N15G24    30.02S
ALBERT LEA     SUNNY     72  28  20 NW16G23   30.03F
DODGE CENTER   SUNNY     72  34  25 NW16G23   30.02F
PRESTON        SUNNY     69  31  24 N10       30.01S
OWATONNA       SUNNY     70  32  24 N17       30.03F
FARIBAULT      SUNNY     72  34  25 NW14      30.03F
$$

...ELSEWHERE IN MINNESOTA...


CITY           SKY/WX    TMP DP  RH WIND       PRES   REMARKS
MINNEAPOLIS    SUNNY     72  27  18 NW14      30.02S
INTNL FALLS    SUNNY     63  28  26 N13       30.07S
DULUTH         SUNNY     67  24  19 NW15G24   30.01S
RED WING       SUNNY     73  27  17 NW9       29.99S
REDWOOD FALLS  SUNNY     72  33  24 NW13      30.06F
MANKATO        SUNNY     72  32  23 NW15      30.04F
WORTHINGTON    MOSUNNY   72  36  26 N21G29    30.09F
FAIRMONT       SUNNY     73  23  15 NW18      30.06S
$$

...SOUTHWEST WISCONSIN...


CITY           SKY/WX    TMP DP  RH WIND       PRES   REMARKS
LA CROSSE      SUNNY     74  37  26 NW12      29.97R
PRAIRIE DU CHI SUNNY     74  26  16 W16G29    29.97S
BOSCOBEL       PTSUNNY   75  44  33 SW9       29.96F
LONE ROCK      SUNNY     73  39  29 W10G20    29.96F
PLATTEVILLE    SUNNY     70  40  34 W13       30.00F
FORT MC COY    SUNNY     73  30  21 W9        29.97S
CAMP DOUGLAS   MOSUNNY   74  37  25 NW14G23   29.94F
VIROQUA        FAIR      70  35  27 NW13      29.98S
WIS DELLS      MOSUNNY   71  35  27 W13G22    29.95F
$$

...ELSEWHERE IN WISCONSIN...


CITY           SKY/WX    TMP DP  RH WIND       PRES   REMARKS
MILWAUKEE      MOSUNNY   71  32  23 W8G22     29.96F
MADISON        MOSUNNY   71  35  26 W10G20    29.96F
GREEN BAY      CLOUDY    61  46  57 NE14      29.93S
EAU CLAIRE     SUNNY     71  35  26 N10G21    29.97S
BLACK RVR FLS  FAIR      73  34  23 N13G18    29.96S
MEDFORD        SUNNY     65  34  31 N13G21    29.98R
WAUSAU         MOSUNNY   69  33  26 N12G21    29.93R
WIS RAPIDS     MOSUNNY   73  31  21 NW20      29.94F
MARSHFIELD     MOSUNNY   70  35  27 NW17      29.95S
RICE LAKE      SUNNY     69  31  24 NW12      30.01F
$$

...NORTHEAST IOWA...


CITY           SKY/WX    TMP DP  RH WIND       PRES   REMARKS
DECORAH        SUNNY     70  28  21 NW13G24   29.99S
MASON CITY     SUNNY     72  30  21 NW18G30   30.05S
CHARLES CITY   SUNNY     73  19  13 NW22G29   30.02S
OELWEIN        SUNNY     73  32  21 NW22G29   30.01S
$$

...ELSEWHERE IN IOWA...


CITY           SKY/WX    TMP DP  RH WIND       PRES   REMARKS
DES MOINES     MOSUNNY   77  36  22 W18       30.08F
IOWA CITY      PTSUNNY   72  43  35 W10       30.04F
FORT DODGE     PTSUNNY   73  39  29 NW12G18   30.07F
$$

...NORTHERN ILLINOIS...


CITY           SKY/WX    TMP DP  RH WIND       PRES   REMARKS
CHICAGO-OHARE  MOSUNNY   67  35  30 W10G20    30.01F
CHICAGO-MIDWAY MOSUNNY   69  35  28 W8G23     30.03F
MOLINE         SUNNY     71  39  31 W12       30.04F
ROCKFORD       SUNNY     68  40  35 W10       30.04F
PEORIA         SUNNY     70  39  32 W10       30.09F
$$

NOTE: "FAIR" INDICATES FEW OR NO CLOUDS BELOW 12,000 FEET WITH NO
SIGNIFICANT WEATHER AND/OR OBSTRUCTIONS TO VISIBILITY. WIND
SPEEDS ARE IN MILES-PER-HOUR.



USA.gov is the U.S. government's official web portal to all federal, state and local government web resources and services.